• In Deutschland
  • Länderverzeichnis
  • Für 7 Tage
  • Wassertemperatur
  • Satellitenkarten
  • Wetterkarte
  • Widgets
  • user-avatar
    Anmelden

    Stündliche Wetter New Britain

    Heute, 24 September, Sonntag

    Zeit Temperatur Niederschläge Wind Luftdruck Luftfeuchtigkeit
    00:00 +21°C° 0 mm 1 m/S 759 mmHg 73%
    01:00 +21°C° 0 mm 1 m/S 759 mmHg 75%
    02:00 +21°C° 0 mm 1 m/S 759 mmHg 76%
    03:00 +21°C° 0 mm 1 m/S 760 mmHg 77%
    04:00 +21°C° 0 mm 1 m/S 760 mmHg 78%
    05:00 +21°C° 0 mm 1 m/S 760 mmHg 77%
    06:00 +22°C° 0 mm 1 m/S 760 mmHg 77%
    07:00 +23°C° 0 mm 1 m/S 760 mmHg 76%
    08:00 +25°C° 0 mm 1 m/S 760 mmHg 67%
    09:00 +28°C° 0 mm 1 m/S 760 mmHg 58%
    10:00 +31°C° 0 mm 1 m/S 760 mmHg 49%
    11:00 +32°C° 0 mm 1 m/S 760 mmHg 46%
    12:00 +33°C° 0 mm 1 m/S 760 mmHg 43%
    13:00 +35°C° 0 mm 1 m/S 760 mmHg 40%
    14:00 +34°C° 0 mm 1 m/S 759 mmHg 43%
    15:00 +33°C° 0 mm 1 m/S 759 mmHg 45%
    16:00 +33°C° 0 mm 1 m/S 759 mmHg 48%
    17:00 +30°C° 0 mm 1 m/S 759 mmHg 57%
    18:00 +27°C° 0 mm 1 m/S 759 mmHg 65%
    19:00 +25°C° 0 mm 1 m/S 759 mmHg 74%
    20:00 +24°C° 0 mm 1 m/S 759 mmHg 76%
    21:00 +23°C° 0 mm 1 m/S 760 mmHg 78%
    22:00 +23°C° 0 mm 1 m/S 760 mmHg 81%
    23:00 +22°C° 0 mm 1 m/S 760 mmHg 82%

    Morgen, 25 September, Montag

    Zeit Temperatur Niederschläge Wind Luftdruck Luftfeuchtigkeit
    00:00 +20°C° 0 mm 0 m/S 760 mmHg 83%
    01:00 +20°C° 0 mm 0 m/S 759 mmHg 85%
    02:00 +20°C° 0 mm 0 m/S 759 mmHg 85%
    03:00 +22°C° 0 mm 1 m/S 759 mmHg 86%
    04:00 +22°C° 0 mm 1 m/S 759 mmHg 86%
    05:00 +22°C° 0 mm 1 m/S 759 mmHg 84%
    06:00 +23°C° 0 mm 1 m/S 760 mmHg 82%
    07:00 +24°C° 0 mm 1 m/S 760 mmHg 80%
    08:00 +26°C° 0 mm 1 m/S 760 mmHg 71%
    09:00 +29°C° 0 mm 1 m/S 760 mmHg 62%
    10:00 +31°C° 0 mm 1 m/S 760 mmHg 53%
    11:00 +33°C° 0 mm 1 m/S 760 mmHg 50%
    12:00 +34°C° 0 mm 1 m/S 759 mmHg 47%
    13:00 +35°C° 0 mm 1 m/S 759 mmHg 43%
    14:00 +34°C° 0 mm 1 m/S 759 mmHg 46%
    15:00 +34°C° 0 mm 2 m/S 758 mmHg 48%
    16:00 +32°C° 0 mm 2 m/S 758 mmHg 50%
    17:00 +30°C° 0 mm 2 m/S 758 mmHg 60%
    18:00 +27°C° 0 mm 2 m/S 759 mmHg 70%
    19:00 +24°C° 0 mm 2 m/S 759 mmHg 80%
    20:00 +23°C° 0 mm 1 m/S 759 mmHg 85%
    21:00 +22°C° 0 mm 1 m/S 759 mmHg 90%
    22:00 +19°C° 0 mm 0 m/S 760 mmHg 94%
    23:00 +19°C° 0 mm 0 m/S 759 mmHg 95%

    übermorgen, 26 September, Dienstag

    Zeit Temperatur Niederschläge Wind Luftdruck Luftfeuchtigkeit
    00:00 +21°C° 0 mm 1 m/S 759 mmHg 95%
    01:00 +21°C° 0 mm 1 m/S 759 mmHg 96%
    02:00 +21°C° 0 mm 1 m/S 759 mmHg 96%
    03:00 +21°C° 0 mm 1 m/S 759 mmHg 96%
    04:00 +21°C° 0 mm 1 m/S 759 mmHg 96%
    05:00 +21°C° 0 mm 1 m/S 759 mmHg 94%
    06:00 +22°C° 0 mm 1 m/S 759 mmHg 92%
    07:00 +22°C° 0 mm 1 m/S 760 mmHg 90%
    08:00 +25°C° 0 mm 1 m/S 759 mmHg 79%
    09:00 +27°C° 0 mm 1 m/S 759 mmHg 69%
    10:00 +30°C° 0 mm 1 m/S 759 mmHg 58%
    11:00 +31°C° 0 mm 2 m/S 759 mmHg 55%
    12:00 +32°C° 0 mm 2 m/S 758 mmHg 51%
    13:00 +34°C° 0 mm 2 m/S 758 mmHg 47%
    14:00 +32°C° 0 mm 2 m/S 758 mmHg 50%
    15:00 +31°C° 0 mm 2 m/S 757 mmHg 53%
    16:00 +31°C° 0 mm 2 m/S 757 mmHg 56%
    17:00 +28°C° 0 mm 2 m/S 757 mmHg 67%
    18:00 +26°C° 0 mm 1 m/S 758 mmHg 77%
    19:00 +24°C° 0 mm 1 m/S 758 mmHg 88%
    20:00 +23°C° 0 mm 1 m/S 758 mmHg 91%
    21:00 +23°C° 0 mm 1 m/S 758 mmHg 94%
    22:00 +22°C° 0 mm 1 m/S 758 mmHg 97%
    23:00 +22°C° 0 mm 1 m/S 757 mmHg 97%

    27 September, Mittwoch

    Zeit Temperatur Niederschläge Wind Luftdruck Luftfeuchtigkeit
    00:00 +20°C° 0 mm 0 m/S 757 mmHg 97%
    01:00 +20°C° 0 mm 0 m/S 757 mmHg 97%
    02:00 +20°C° 0 mm 0 m/S 757 mmHg 97%
    03:00 +21°C° 0 mm 1 m/S 757 mmHg 98%
    04:00 +21°C° 0 mm 1 m/S 756 mmHg 98%
    05:00 +22°C° 0 mm 1 m/S 756 mmHg 96%
    06:00 +23°C° 0 mm 1 m/S 756 mmHg 95%
    07:00 +23°C° 0 mm 1 m/S 756 mmHg 93%
    08:00 +25°C° 0 mm 1 m/S 756 mmHg 83%
    09:00 +28°C° 0 mm 1 m/S 756 mmHg 73%
    10:00 +30°C° 0 mm 2 m/S 756 mmHg 62%
    11:00 +31°C° 0 mm 2 m/S 756 mmHg 59%
    12:00 +33°C° 0 mm 3 m/S 755 mmHg 56%
    13:00 +33°C° 0 mm 3 m/S 754 mmHg 53%
    14:00 +31°C° 0 mm 3 m/S 754 mmHg 56%
    15:00 +31°C° 0 mm 3 m/S 754 mmHg 59%
    16:00 +30°C° 0 mm 3 m/S 754 mmHg 62%
    17:00 +28°C° 0 mm 3 m/S 754 mmHg 72%
    18:00 +26°C° 0 mm 2 m/S 754 mmHg 81%
    19:00 +24°C° 0 mm 1 m/S 754 mmHg 91%
    20:00 +24°C° 0 mm 1 m/S 754 mmHg 93%
    21:00 +23°C° 0 mm 1 m/S 754 mmHg 95%
    22:00 +23°C° 0 mm 1 m/S 754 mmHg 97%
    23:00 +23°C° 0 mm 1 m/S 753 mmHg 97%

    28 September, Donnerstag

    Zeit Temperatur Niederschläge Wind Luftdruck Luftfeuchtigkeit
    00:00 +23°C° 0 mm 1 m/S 753 mmHg 97%
    01:00 +22°C° 0 mm 0 m/S 752 mmHg 97%
    02:00 +22°C° 0 mm 0 m/S 752 mmHg 97%
    03:00 +22°C° 0 mm 0 m/S 752 mmHg 97%
    04:00 +22°C° 0 mm 0 m/S 752 mmHg 97%
    05:00 +24°C° 0,2 mm 1 m/S 752 mmHg 96%
    06:00 +24°C° 0,2 mm 1 m/S 752 mmHg 95%
    07:00 +24°C° 0,2 mm 2 m/S 752 mmHg 94%
    08:00 +25°C° 0,1 mm 2 m/S 752 mmHg 82%
    09:00 +26°C° 0,1 mm 3 m/S 752 mmHg 70%
    10:00 +28°C° 0,1 mm 3 m/S 751 mmHg 59%
    11:00 +28°C° 0 mm 3 m/S 751 mmHg 53%
    12:00 +29°C° 0 mm 4 m/S 751 mmHg 47%
    13:00 +29°C° 0 mm 4 m/S 750 mmHg 41%
    14:00 +29°C° 0 mm 4 m/S 750 mmHg 41%
    15:00 +28°C° 0 mm 4 m/S 750 mmHg 41%
    16:00 +27°C° 0 mm 5 m/S 750 mmHg 41%
    17:00 +25°C° 0 mm 4 m/S 751 mmHg 44%
    18:00 +22°C° 0 mm 4 m/S 752 mmHg 48%
    19:00 +20°C° 0 mm 4 m/S 752 mmHg 51%
    20:00 +19°C° 0 mm 4 m/S 752 mmHg 54%
    21:00 +18°C° 0 mm 4 m/S 753 mmHg 56%
    22:00 +17°C° 0 mm 4 m/S 753 mmHg 59%
    23:00 +15°C° 0 mm 4 m/S 753 mmHg 62%

    29 September, Freitag

    Zeit Temperatur Niederschläge Wind Luftdruck Luftfeuchtigkeit
    00:00 +14°C° 0 mm 3 m/S 754 mmHg 64%
    01:00 +13°C° 0 mm 3 m/S 754 mmHg 67%
    02:00 +13°C° 0 mm 3 m/S 754 mmHg 70%
    03:00 +12°C° 0 mm 3 m/S 754 mmHg 72%
    04:00 +12°C° 0 mm 2 m/S 755 mmHg 74%
    05:00 +12°C° 0 mm 2 m/S 755 mmHg 72%
    06:00 +12°C° 0 mm 3 m/S 755 mmHg 70%
    07:00 +12°C° 0 mm 3 m/S 755 mmHg 69%
    08:00 +14°C° 0 mm 3 m/S 755 mmHg 59%
    09:00 +17°C° 0 mm 3 m/S 755 mmHg 49%
    10:00 +19°C° 0 mm 4 m/S 755 mmHg 39%
    11:00 +20°C° 0 mm 4 m/S 755 mmHg 36%
    12:00 +21°C° 0 mm 4 m/S 754 mmHg 34%
    13:00 +22°C° 0 mm 4 m/S 754 mmHg 31%
    14:00 +22°C° 0 mm 4 m/S 754 mmHg 33%
    15:00 +22°C° 0 mm 4 m/S 754 mmHg 35%
    16:00 +21°C° 0 mm 4 m/S 754 mmHg 37%
    17:00 +20°C° 0 mm 4 m/S 754 mmHg 42%
    18:00 +18°C° 0 mm 4 m/S 755 mmHg 48%
    19:00 +17°C° 0 mm 3 m/S 756 mmHg 54%
    20:00 +16°C° 0 mm 3 m/S 756 mmHg 56%
    21:00 +14°C° 0 mm 4 m/S 756 mmHg 59%
    22:00 +13°C° 0 mm 4 m/S 757 mmHg 62%
    23:00 +12°C° 0 mm 4 m/S 757 mmHg 65%
    Mehr zeigen